Regional Weather Roundup
Issued by NWS

Home | Current Version | Previous Version | Text Only | Print | Product List | Glossary Off
Versions: 1 2 3 4 5 6 7 8 9 10 11 12 13 14 15 16 17 18 19 20 21 22 23 24 25 26 27

000
ASUS45 KTFX 232010
RWRMT
MONTANA REGIONAL WEATHER ROUNDUP
NATIONAL WEATHER SERVICE GREAT FALLS MT
100 PM MST THU NOV 23 2017

NOTE: "FAIR" INDICATES FEW OR NO CLOUDS BELOW 12000 FEET WITH NO
SIGNIFICANT WEATHER AND/OR OBSTRUCTIONS TO VISIBILITY.

MTZ001>007-043-232100-
WEST OF THE DIVIDE

CITY           SKY/WX    TMP DP  RH WIND       PRES   REMARKS
KALISPELL      CLOUDY    56  49  77 SW17      29.67F
MISSOULA       LGT RAIN  53  48  83 N10       29.80F
BUTTE          FAIR      58  32  37 SW16G37   29.90F
MULLAN PASS    LGT RAIN  42  40  92 SW15G40   29.77F VSB 1
ANACONDA         N/A     59  36  41 S23G31    29.86F
DEER LODGE       N/A     63  34  34 SW23G38   29.80F
EUREKA           N/A     54  46  76 MISG      29.61F
HAMILTON         N/A     66  36  32 S16G33    29.80F
LIBBY            N/A     55  48  76 S5G17     29.61F
RONAN            N/A     56  46  69 SE9       29.83F
$$

MTZ008-052>055-232100-
SOUTHWEST MONTANA

CITY           SKY/WX    TMP DP  RH WIND       PRES   REMARKS
BOZEMAN        FAIR      61  37  41 SW16G25   29.84F
DILLON         FAIR      63  33  32 SW26G35   29.92F
W YELLOWSTONE  CLOUDY    45  37  76 SW10      30.10F
ENNIS          SUNNY     57  37  47 S30G38    30.00F
$$

MTZ009-010-012-014-046-048-049-054-232100-
EAST SLOPES AND CENTRAL MONTANA

CITY           SKY/WX    TMP DP  RH WIND       PRES   REMARKS
CUT BANK       PTSUNNY   55  44  66 SW23      29.60S
GREAT FALLS    FAIR      67  35  30 SW25G45   29.62F
MALMSTROM AFB  FAIR      66  36  32 SW38G44   29.63F
HELENA         FAIR      66  38  35 SW17G32   29.73F
BOWMANS CRNR   FAIR      57  39  50 W37G47    29.67F
CHOTEAU          N/A     57  41  54 SW28G35   29.67R
FAIRFIELD      FAIR      62  38  41 SW32G40   29.64F
POWER          FAIR      63  37  37 SW36G45   29.63F
RAYNESFORD     FAIR      65  35  32 W28G46    29.66F
ULM            FAIR      67  36  32 SW36G45   29.64F
$$

MTZ011-013-016-021-045-047-050-051-232100-
NORTH CENTRAL MONTANA

CITY           SKY/WX    TMP DP  RH WIND       PRES   REMARKS
HAVRE          FAIR      69  40  34 SW37G52   29.51F
LEWISTOWN      FAIR      67  35  30 SW36G51   29.69F
N BAR RANCH    FAIR      66  32  28 SW24G31   29.70F
CHINOOK          N/A     70  37  30 SW30G46   29.48F
DENTON         FAIR      67  35  31 W30G39    29.63F
GEYSER         FAIR      65  34  32 W31G52    29.66F
GRASS RANGE    FAIR      68  34  28 SW21G31   29.63F
STANFORD       FAIR      64  33  31 W36G48    29.68F
WINIFRED       FAIR      67  34  29 W43G55    29.62F
$$

MTZ017>020-022>027-061-062-232100-
NORTHEAST MONTANA

CITY           SKY/WX    TMP DP  RH WIND       PRES   REMARKS
GLASGOW        FAIR      71  37  28 W25G39    29.53F
GLENDIVE       FAIR      65  40  39 SW23G31   29.62F
JORDAN           N/A     70  36  28 SW22G32   29.61F
SIDNEY         FAIR      57  41  55 S10       29.56F
WOLF POINT     FAIR      67  39  35 SW21      29.53F
MALTA          SUNNY     72  37  28 W29G38    29.50F
PLENTYWOOD       N/A     66  39  37 W24G32    29.47F
POPLAR           N/A     66  37  34 SW18G28   29.53F
SCOBEY           N/A     67  38  34 SW30      29.48
$$

MTZ028>42-056>058-232100-
SOUTHCENTRAL AND SOUTHEAST MONTANA

CITY           SKY/WX    TMP DP  RH WIND       PRES   REMARKS
BAKER          FAIR      67  40  37 W22G28    29.71F
BILLINGS       FAIR      65  39  38 SW15      29.76F
LIVINGSTON     FAIR      65  39  38 SW43G55   29.78F
MILES CITY     FAIR      67  43  41 SW7       29.69F
BIG TIMBER     SUNNY     66  34  30 W44G54    29.77F
FORSYTH          N/A     72  36  26 SW15G24   29.69F
HARLOWTON      FAIR      65  34  31 W28G52    29.75F
LAUREL           N/A     66  39  37 SW9       29.76F
ROUNDUP          N/A     71  35  26 SW24      29.64F
$$

REGIONAL REPORTS...DAKOTAS

CITY           SKY/WX    TMP DP  RH WIND       PRES   REMARKS
WILLISTON      FAIR      59  40  49 S6        29.53F
MINOT          FAIR      57  41  55 SW15      29.50F
DICKINSON      FAIR      69  37  30 W22G30    29.62F
BEACH          FAIR      63  37  39 W23       29.69F
CROSBY         FAIR      59  41  51 SW21G31   29.46F
TIOGA          FAIR      59  39  47 SW21      29.53F
WATFORD CITY   FAIR      61  39  44 SW14      29.56F
BISMARCK       FAIR      71  42  35 W12       29.62F
GRAND FORKS    CLOUDY    32  30  92 S15       29.63F WCI  22
FARGO          FAIR      42  30  62 S13       29.67F
RAPID CITY     FAIR      75  37  25 S12       29.80F
$$

REGIONAL REPORTS...WYOMING/IDAHO/WASHINGTON

CITY           SKY/WX    TMP DP  RH WIND       PRES   REMARKS
GILLETTE       FAIR      60  33  36 W22G30    29.85F
SHERIDAN       FAIR      73  33  23 W7        29.81F
BUFFALO WY     FAIR      57  31  37 S8        29.87F
CODY           FAIR      66  34  30 W21G35    29.90F
YELLOWSTONE LA   N/A     45  35  68 W9G20     30.15F
IDAHO FALLS    FAIR      56  43  61 SW12      30.10F
SALMON         CLOUDY    39  38  96 CALM      29.98F
BOISE          FAIR      61  45  55 SE7       30.02F
SPOKANE        PTSUNNY   57  51  80 SW30G46   29.72F
$$

REGIONAL REPORTS...ALBERTA

CITY           SKY/WX    TMP DP  RH WIND       PRES   REMARKS
EDMONTON       PTSUNNY   39  32  75 SW12G17   29.30F WCI  32
CALGARY        MOSUNNY   50  34  53 SW8       29.37F
LETHBRIDGE     MOSUNNY   61  37  41 SW28G38   29.44F
MEDICINE HAT   MOSUNNY   63  46  55 SW31G44   29.36F
$$

REGIONAL REPORTS...SASKATCHEWAN

CITY           SKY/WX    TMP DP  RH WIND       PRES   REMARKS
SWIFT CURRENT  SUNNY     55  43  62 W17G28    29.35F
REGINA         PTSUNNY   41  36  81 SW8       29.33F
SASKATOON      PTSUNNY   34  28  80 W13       29.24F WCI  25
$$




USA.gov is the U.S. government's official web portal to all federal, state and local government web resources and services.